Lamar, CO

5:37 AM MST on December 12, 2017 (GMT -0700)
Lamar Municipal

Weather History for KLAA - April, 2013

Change the Weather History Date:

Wednesday, April 10, 2013

  Actual Average Record
Temperature  
Mean Temperature 27 °F 50 °F  
Max Temperature 39 °F 67 °F 91 °F (1960)
Min Temperature 15 °F 34 °F 14 °F (1959)
Degree Days  
Heating Degree Days 38 15  
Month to date heating degree days 187 160  
Since 1 July heating degree days 4988 5169  
Cooling Degree Days 0 0  
Month to date cooling degree days 0 0  
Year to date cooling degree days 0 0  
Moisture  
Dew Point 6 °F    
Average Humidity 43    
Maximum Humidity 59    
Minimum Humidity 27    
Precipitation  
Precipitation 0.00 in 0.04 in 1.62 in (1944)
Month to date precipitation T 0.30  
Year to date precipitation 0.26  
Sea Level Pressure  
Sea Level Pressure 30.13 in    
Wind  
Wind Speed 15 mph (NNW)    
Max Wind Speed 28 mph    
Max Gust Speed 35 mph    
Visibility 10 miles    
Events      
T = Trace of Precipitation, MM = Missing Value Source: NWS Daily Summary

Daily Weather History Graph

Daily Weather History Graph

Search for Another Location

Airport or City:

Trip Planner

Search our weather history database for the weather conditions in past years. The results will help you decide how hot, cold, wet, or windy it might be!

Date:

Astronomy

Apr. 10, 2013 Rise Set
Actual Time 6:22 AM MDT 7:22 PM MDT
Civil Twilight 5:55 AM MDT 7:49 PM MDT
Nautical Twilight 5:23 AM MDT 8:21 PM MDT
Astronomical Twilight 4:49 AM MDT 8:54 PM MDT
Moon 6:19 AM MDT (4/10) 7:59 PM MDT (4/10)
Length of Visible Light 13h 54m
Length of Day
13h 00m
New Moon, 0% of the Moon is Illuminated
Apr 10
New Moon
Apr 18
First Quarter
Apr 25
Full
May 2
Last Quarter
May 9
New

Hourly Weather History & Observations

Time (MDT) Temp. Windchill Dew Point Humidity Pressure Visibility Wind Dir Wind Speed Gust Speed Precip Events Conditions
12:53 AM 15.1 °F -2.0 °F 3.0 °F 59% 30.23 in 10.0 mi NNW 19.6 mph 28.8 mph N/A   Clear
1:53 AM 15.1 °F -2.0 °F 3.0 °F 59% 30.24 in 10.0 mi North 19.6 mph 25.3 mph N/A   Clear
2:53 AM 15.1 °F 0.5 °F 3.9 °F 61% 30.23 in 10.0 mi NNW 13.8 mph - N/A   Clear
4:53 AM 16.0 °F 2.3 °F 3.9 °F 59% 30.24 in 10.0 mi NNW 12.7 mph 19.6 mph N/A   Clear
5:53 AM 16.0 °F 2.3 °F 3.9 °F 59% 30.24 in 10.0 mi NW 12.7 mph - N/A   Clear
6:53 AM 16.0 °F 2.3 °F 3.9 °F 59% 30.23 in 10.0 mi NW 12.7 mph - N/A   Clear
7:53 AM 17.1 °F 2.0 °F 3.9 °F 56% 30.23 in 10.0 mi NW 16.1 mph - N/A   Clear
8:53 AM 23.0 °F 8.3 °F 5.0 °F 46% 30.22 in 10.0 mi NNW 19.6 mph 28.8 mph N/A   Clear
9:22 AM 24.8 °F 11.5 °F 5.0 °F 43% 30.12 in 10.0 mi NNW 17.3 mph 26.5 mph N/A   Partly Cloudy
9:53 AM 28.0 °F 14.9 °F 5.0 °F 38% 30.21 in 10.0 mi NNW 19.6 mph 26.5 mph N/A   Clear
11:24 AM 32.0 °F 19.2 °F 5.0 °F 32% 30.07 in 10.0 mi NNW 23.0 mph 31.1 mph N/A   Partly Cloudy
11:53 AM 33.1 °F 21.2 °F 5.0 °F 31% 30.15 in 10.0 mi NNW 20.7 mph 29.9 mph N/A   Partly Cloudy
12:53 PM 34.0 °F 21.8 °F 6.1 °F 31% 30.11 in 10.0 mi NNW 23.0 mph 29.9 mph N/A   Clear
1:50 PM 37.4 °F 27.2 °F 6.8 °F 28% 30.02 in 10.0 mi NNW 19.6 mph 33.4 mph N/A   Partly Cloudy
1:53 PM 37.0 °F 25.9 °F 6.1 °F 28% 30.09 in 10.0 mi North 23.0 mph 32.2 mph N/A   Partly Cloudy
2:53 PM 37.0 °F 26.4 °F 7.0 °F 29% 30.07 in 10.0 mi NNW 20.7 mph 29.9 mph N/A   Clear
3:53 PM 37.0 °F 27.0 °F 8.1 °F 30% 30.04 in 10.0 mi NNW 18.4 mph 29.9 mph N/A   Clear
4:53 PM 35.1 °F 23.8 °F 8.1 °F 33% 30.04 in 10.0 mi NNW 20.7 mph 31.1 mph N/A   Clear
5:53 PM 33.1 °F 21.2 °F 8.1 °F 35% 30.04 in 10.0 mi North 20.7 mph 28.8 mph N/A   Scattered Clouds
6:53 PM 30.0 °F 19.5 °F 8.1 °F 40% 30.06 in 10.0 mi North 13.8 mph - N/A   Clear
7:53 PM 28.9 °F 18.6 °F 9.0 °F 43% 30.07 in 10.0 mi North 12.7 mph - N/A   Overcast
8:53 PM 28.0 °F 18.6 °F 8.1 °F 43% 30.07 in 10.0 mi North 10.4 mph - N/A   Overcast
9:53 PM 26.1 °F 17.6 °F 9.0 °F 49% 30.08 in 10.0 mi North 8.1 mph - N/A   Mostly Cloudy
10:53 PM 25.0 °F - 9.0 °F 51% 30.06 in 10.0 mi Calm Calm - N/A   Mostly Cloudy
11:53 PM 24.1 °F - 9.0 °F 53% 30.02 in 10.0 mi Calm Calm - N/A   Overcast